Theta_e
312 309 308 307 307 307 305 304 303 301 297 296 296 295 295 295 295 294 294 294 293 292 292 291 291 291 291 290 291 291 291 291 291 291 291 291 291 291 291 292 292 292 292
308 308 308 308 307 306 305 304 302 301 298 295 295 294 295 295 294 294 294 292 292 291 291 290 290 290 289 289 290 290 290 290 290 290 290 291 291 291 291 291 291 291 291
307 307 308 308 307 306 305 303 302 300 297 295 294 293 292 293 293 293 293 292 291 291 291 290 290 290 288 289 289 289 289 288 288 289 289 290 291 290 290 290 290 290 290
306 309 309 308 308 306 305 303 301 299 296 295 294 294 293 293 293 293 292 292 291 291 291 291 290 289 288 288 288 288 288 287 287 287 288 289 289 289 289 289 288 288 288
307 309 309 308 306 305 304 302 300 298 296 295 294 294 294 293 293 293 292 292 292 291 291 290 290 288 288 288 288 287 287 287 287 288 288 288 288 288 288 288 288 287 287
309 309 308 308 307 306 302 299 298 296 295 295 294 294 293 293 293 292 292 292 291 291 290 290 289 288 288 288 287 287 287 287 287 287 287 287 286 286 287 287 286 286 286
309 309 308 308 307 305 303 301 297 296 295 294 294 294 293 293 293 292 292 292 291 291 290 289 288 288 288 288 287 287 287 287 286 284 285 286 286 286 286 286 286 286 285
309 309 309 308 306 304 303 301 296 296 295 294 294 294 293 293 292 292 292 291 291 290 289 288 288 288 288 288 287 287 287 286 286 284 283 284 284 285 286 287 287 286 286
309 309 309 307 305 304 302 298 296 295 294 293 293 293 293 292 292 292 291 290 290 289 288 288 288 288 288 288 287 287 287 286 284 283 283 283 284 284 286 287 287 286 286
310 310 308 306 304 302 299 297 296 294 293 293 293 293 292 291 291 291 290 290 289 289 288 288 288 288 288 287 287 287 286 285 283 283 283 284 284 285 285 286 286 286 286
309 309 307 305 304 300 297 296 295 293 293 293 292 292 291 291 291 290 290 290 289 289 288 288 288 287 287 287 287 287 286 285 284 284 284 284 285 285 285 285 285 285 286
309 308 307 305 303 299 296 295 294 293 293 292 292 291 291 291 291 290 290 289 288 288 288 287 287 287 287 286 286 286 286 284 284 284 284 284 284 284 285 285 285 285 285
309 307 305 303 299 297 295 294 293 292 292 292 291 291 291 291 290 290 289 289 288 288 288 288 287 287 287 286 286 286 284 281 284 284 283 283 283 284 284 285 285 285 286
308 307 304 301 298 296 294 294 293 292 292 291 291 291 290 290 290 290 289 288 288 288 288 287 288 287 287 286 285 283 280 282 283 283 283 283 283 283 284 285 285 285 285
307 305 301 298 296 295 294 294 292 292 291 291 291 291 290 289 289 289 288 287 287 288 286 286 287 286 284 285 283 281 280 281 281 281 281 282 283 283 282 282 283 283 283
306 303 298 296 295 294 294 293 292 292 291 291 291 290 289 289 289 288 287 286 286 285 284 284 285 282 282 283 280 281 280 280 280 280 281 281 282 281 282 282 282 282 282
304 300 297 296 294 294 294 293 292 292 291 291 290 289 289 289 288 286 286 285 284 284 284 283 282 282 281 280 281 281 280 280 280 281 281 281 281 280 282 282 281 282 281
302 299 296 295 294 294 293 292 292 291 291 291 290 289 289 288 286 285 285 285 284 284 283 283 283 282 282 281 280 281 280 280 280 281 280 280 280 281 281 281 281 280 281
301 297 295 294 294 293 293 292 291 291 291 290 289 289 288 286 285 285 285 284 284 284 283 283 282 282 281 280 280 280 280 280 280 280 279 279 280 280 281 281 280 280 281
298 296 295 294 293 293 292 291 291 291 291 290 289 288 287 286 285 284 284 284 284 284 283 283 283 282 281 280 279 280 280 279 279 280 279 279 279 280 281 282 281 281 281
296 295 294 293 293 292 291 291 291 291 290 290 289 287 286 285 285 284 284 284 284 284 284 284 283 282 282 281 279 280 280 279 279 279 278 278 279 279 281 281 282 282 282
295 295 293 293 292 292 291 291 291 290 290 290 289 288 288 288 287 286 285 285 284 284 284 284 283 282 282 280 280 279 279 279 278 278 277 277 278 279 280 281 282 282 283
295 294 292 292 292 291 291 290 290 291 290 290 289 289 289 289 288 287 286 285 284 283 283 282 282 281 280 279 280 279 278 278 278 278 277 277 277 279 280 281 282 283 284
294 293 292 291 291 291 291 291 291 291 290 290 290 289 288 288 287 287 286 285 284 284 282 282 281 281 280 279 279 279 278 278 278 277 276 276 277 278 280 281 282 283 284
294 293 292 292 291 291 291 291 291 291 290 288 289 288 288 287 287 286 286 285 284 283 282 282 281 280 280 279 280 279 278 278 277 277 276 276 277 278 279 281 282 283 284
294 293 293 292 291 291 291 290 290 291 290 289 288 288 288 287 287 286 286 285 284 283 282 282 282 282 281 281 281 281 279 278 278 276 275 275 276 276 277 279 281 282 284
Wind_Speed
15 14 15 19 15 8 5 7 13 18 16 9 13 10 12 12 11 13 15 19 21 23 24 23 22 26 30 32 23 25 25 25 24 27 29 28 25 22 21 15 15 16 14
15 13 18 16 14 5 4 8 12 16 18 12 14 8 8 8 13 14 18 21 20 22 23 25 27 31 34 25 22 24 26 28 28 27 28 23 27 20 21 21 21 17 15
15 15 18 17 11 2 5 9 10 14 18 17 16 14 12 10 15 19 23 21 22 21 24 27 30 34 27 22 24 27 28 29 30 26 25 23 10 29 20 23 14 15 18
13 17 17 15 4 4 5 6 11 15 20 18 18 19 18 16 19 19 24 23 19 23 25 29 32 35 26 25 26 25 26 27 28 27 23 23 25 21 18 18 28 24 24
15 19 14 13 11 7 10 7 10 13 18 17 18 18 18 17 20 20 25 26 23 27 27 28 30 32 28 28 25 27 28 27 26 26 26 28 24 25 26 24 27 30 25
20 15 13 10 2 4 8 10 11 14 15 16 17 16 18 19 22 23 26 26 27 27 30 26 33 28 30 27 27 29 28 23 24 28 30 25 29 28 25 26 29 31 33
18 12 15 5 4 4 5 10 11 11 14 17 16 16 19 20 23 24 25 27 28 31 27 31 29 30 28 27 28 30 28 23 25 32 33 30 28 27 25 23 27 25 27
17 13 7 4 3 3 7 12 8 11 14 16 16 16 21 20 21 24 24 27 29 28 31 28 29 28 28 27 30 28 30 29 35 48 33 32 28 26 23 24 26 27 25
15 19 7 6 3 3 7 7 7 11 14 15 17 17 21 21 21 21 25 27 27 30 28 27 29 29 28 31 30 31 31 33 48 35 29 28 27 25 24 28 22 23 20
18 11 7 6 2 4 6 8 9 10 13 14 16 16 23 20 21 24 26 26 29 28 29 29 28 30 30 32 32 31 33 48 43 30 25 22 19 19 19 20 20 20 21
21 11 8 6 3 5 7 8 10 11 12 14 15 20 23 20 21 26 25 26 29 27 30 29 30 31 33 35 36 35 42 49 39 27 23 22 20 21 21 21 19 21 21
19 14 9 7 2 2 5 8 12 13 12 14 16 21 23 20 24 25 25 28 27 27 30 31 32 31 35 37 37 40 48 52 35 29 28 26 24 23 22 21 20 20 20
21 18 14 10 5 4 4 8 10 12 12 15 17 20 23 21 26 24 27 27 27 30 32 31 33 32 34 36 39 44 52 45 28 29 32 27 25 24 21 23 20 19 20
22 14 12 7 5 5 5 7 9 11 13 15 17 20 21 21 24 24 26 26 27 30 32 31 32 32 35 35 42 51 45 32 27 29 32 28 23 21 20 18 16 18 20
16 15 16 10 7 5 5 7 10 11 13 13 16 19 19 20 22 24 26 25 27 29 29 30 31 33 34 38 47 46 41 34 32 33 30 26 23 20 21 21 18 16 16
24 20 13 10 8 7 5 7 8 10 12 13 15 19 19 21 22 23 25 25 28 30 29 30 33 36 33 38 44 41 39 36 37 36 28 24 22 29 28 25 16 21 17
23 18 14 11 8 7 6 6 6 9 11 13 15 18 18 20 21 23 24 26 29 30 31 32 34 36 36 37 40 39 38 38 37 29 27 26 27 26 23 20 15 16 17
23 18 14 13 8 9 5 1 5 8 10 14 16 17 19 19 21 24 25 26 28 31 33 34 35 35 35 34 38 42 41 42 35 32 36 28 27 24 23 19 20 15 12
20 17 15 13 10 8 4 3 5 8 11 14 15 16 18 17 21 23 25 27 29 33 34 35 36 38 39 36 43 43 44 42 38 35 34 26 28 22 21 22 17 11 7
20 19 15 13 11 6 4 5 8 10 12 12 13 14 16 17 20 22 25 29 32 35 36 37 38 40 42 41 42 42 44 44 41 36 35 28 28 22 18 21 18 16 11
22 18 15 13 11 5 5 8 9 10 10 10 10 14 16 18 20 22 26 30 33 35 38 39 41 43 44 45 44 44 45 44 41 38 37 30 28 22 18 19 20 14 10
25 19 17 15 11 5 5 8 9 9 8 10 11 11 14 17 20 24 27 30 33 35 37 40 41 44 45 46 46 47 45 42 42 40 37 31 28 22 17 19 17 15 10
24 19 18 17 12 7 7 9 11 10 9 11 13 12 12 17 20 22 26 29 31 36 39 40 41 44 47 47 48 50 49 47 46 37 34 32 29 24 21 20 18 17 18
24 20 17 15 12 10 10 10 10 7 8 7 8 9 11 12 16 18 21 25 29 32 36 38 39 44 47 47 49 51 51 51 50 46 42 38 34 30 26 23 21 20 18
24 20 18 15 13 10 9 9 10 4 4 7 6 8 9 12 16 17 20 22 24 28 33 36 37 42 46 45 45 48 49 50 51 49 46 44 40 36 33 29 26 22 18
26 22 17 15 14 12 10 8 7 5 3 5 6 7 9 11 14 17 18 18 21 25 29 32 34 37 38 42 45 49 51 52 54 53 48 47 42 39 36 34 30 25 21
Wind_Direction
135 126 115 105 97 94 56 22 352 354 8 359 352 6 11 10 349 352 339 333 341 340 339 336 329 327 326 327 327 326 327 322 321 320 317 320 310 308 305 297 301 286 286
141 129 121 117 109 110 35 0 0 353 355 2 353 0 348 343 341 340 332 340 343 342 338 331 326 326 326 331 336 331 328 320 319 329 328 327 316 314 307 300 300 300 291
147 136 131 124 137 114 31 5 353 349 354 358 2 2 1 1 353 346 341 345 343 343 334 331 328 330 335 338 329 325 327 327 318 318 327 326 311 321 318 312 299 289 292
158 141 137 131 144 80 30 14 351 347 354 0 1 2 5 7 353 346 341 341 349 338 335 332 333 339 342 337 335 335 331 329 327 327 324 317 310 323 318 302 304 302 299
154 143 134 141 126 85 29 10 352 353 357 360 358 358 360 360 345 343 342 349 349 345 341 338 337 343 345 340 338 334 333 331 329 328 319 313 310 308 309 309 307 307 303
153 148 128 135 117 22 66 36 5 3 357 351 356 356 354 350 349 346 351 350 345 343 344 340 338 344 342 342 338 335 335 335 331 323 320 315 318 311 304 303 304 306 306
161 149 149 157 100 57 351 8 5 1 351 350 358 355 357 354 352 350 350 345 343 343 347 341 344 342 343 341 338 337 333 323 322 329 309 305 300 302 293 293 295 299 306
165 163 165 113 89 338 338 2 9 353 349 355 2 356 356 354 351 349 347 345 344 346 343 346 345 346 345 340 337 331 323 314 315 320 313 307 303 299 295 286 284 289 298
166 144 137 117 72 346 354 17 2 351 352 5 0 357 349 355 352 352 343 345 346 345 347 348 347 347 343 340 337 327 321 323 326 324 314 310 299 297 295 293 271 275 278
160 150 144 102 93 52 30 6 2 356 7 8 1 350 347 353 356 349 350 353 350 351 353 352 348 344 340 340 332 327 326 334 338 332 322 318 312 303 296 292 289 277 270
147 135 134 124 122 63 19 7 2 6 19 9 356 347 353 4 355 352 357 355 352 357 354 351 346 345 342 338 335 329 330 340 341 337 329 321 317 308 300 290 281 275 269
134 136 149 147 151 77 18 9 6 19 17 4 354 352 2 7 355 358 0 354 357 357 354 354 351 346 344 339 334 330 334 339 337 336 333 325 319 307 302 295 283 271 263
139 139 122 138 120 59 41 17 18 17 12 2 357 360 4 3 356 2 358 358 2 4 358 354 351 348 342 337 331 332 335 336 336 339 342 326 315 307 303 297 281 276 268
143 139 136 142 103 82 47 25 16 18 8 8 4 2 6 0 0 3 1 7 6 2 356 355 357 353 341 334 336 337 343 347 345 337 334 336 329 319 314 310 289 275 269
131 133 145 133 116 89 58 34 22 16 6 11 6 2 4 3 6 9 9 9 10 2 359 359 359 349 347 344 339 344 351 353 350 342 336 334 328 319 321 314 301 289 270
141 142 139 137 131 109 68 46 30 9 7 15 10 5 11 12 15 15 13 14 12 6 3 5 357 353 355 344 348 353 354 356 353 347 354 352 349 335 321 303 311 273 261
145 148 148 142 127 112 86 66 25 3 19 20 14 15 20 20 21 19 19 19 18 13 10 9 4 2 0 353 347 350 358 1 357 356 351 352 350 340 350 309 319 290 273
153 157 152 142 135 121 113 108 19 25 30 26 20 28 26 25 24 24 24 23 21 18 14 14 11 9 6 359 356 357 3 358 359 0 348 353 349 354 345 334 322 309 286
162 156 152 148 140 131 146 76 60 44 46 30 30 36 30 30 30 30 28 26 23 22 19 17 15 14 14 13 7 359 2 355 1 5 358 359 360 358 0 348 348 341 333
161 156 153 143 133 129 111 85 70 56 54 33 39 45 37 36 36 33 28 26 24 21 19 19 18 19 16 17 14 6 2 358 360 10 5 11 5 2 5 13 2 2 0
153 151 145 132 129 137 99 90 74 61 55 41 47 53 46 42 36 28 24 20 19 19 16 17 19 21 19 17 20 11 6 3 4 6 7 12 10 9 18 26 24 14 22
153 159 147 138 148 159 113 101 82 66 64 54 49 47 39 28 22 21 20 18 16 16 16 14 18 21 21 19 20 22 13 12 14 8 10 12 12 20 28 36 42 44 47
162 161 154 154 161 147 118 105 89 69 63 57 46 42 29 16 12 12 16 16 16 13 12 12 14 18 21 18 21 25 23 22 23 14 15 24 26 34 39 43 50 57 63
162 161 158 153 146 136 124 116 96 67 48 68 61 27 31 20 11 13 15 13 15 12 11 11 13 17 20 18 22 25 22 23 27 26 27 29 35 40 42 45 50 55 61
165 164 162 158 149 140 129 126 121 108 72 65 61 41 29 22 21 20 18 17 18 14 15 14 17 18 20 22 27 29 24 21 27 26 27 29 33 36 40 43 46 52 60
167 167 165 159 153 145 134 128 137 142 104 74 55 31 27 26 23 19 27 27 23 23 24 24 19 26 27 22 27 32 32 29 29 29 23 26 31 32 33 35 40 46 52